Simultaneous Nadir Overpasses (SNOs) Predictions

Prediction of SNOs between TERRA and METOP-C Satellite Orbit:

Table of predicted SNOs for the next 14.0 days since TLE Epoch: 9/14/2019
Index Date (TERRA) Time (TERRA) Lat,Lon (TERRA) SZA (TERRA ) Date (METOP-C) Time (METOP-C) Lat,Lon (METOP-C) SZA (METOP-C ) Distance(km) Time Diff (sec)
1 09/15/2019 13:09:52 81.31, 29.69 81.22 09/15/2019 13:09:05 81.31, 29.80 81.21 1.80 47
2 09/15/2019 13:59:19 -81.30,-162.76 98.79 09/15/2019 13:59:46 -81.31,-162.77 98.77 0.67 27
3 09/18/2019 08:44:09 81.31, 96.15 82.33 09/18/2019 08:43:27 81.31, 96.23 82.32 1.39 42
4 09/18/2019 09:33:36 -81.31, -96.28 97.67 09/18/2019 09:34:08 -81.31, -96.28 97.66 0.42 32
5 09/21/2019 04:18:28 81.30, 162.41 83.42 09/21/2019 04:17:50 81.30, 162.27 83.38 2.24 38
6 09/21/2019 05:07:54 -81.32, -29.61 96.52 09/21/2019 05:08:30 -81.31, -29.79 96.53 3.10 36
7 09/23/2019 23:52:47 81.30,-131.16 84.54 09/23/2019 23:52:11 81.30,-131.29 84.50 2.19 36
8 09/24/2019 00:42:13 -81.32, 36.85 95.40 09/24/2019 00:42:51 -81.31, 36.70 95.41 2.77 38
9 09/26/2019 19:27:08 81.31, -64.55 85.68 09/26/2019 19:26:32 81.31, -64.46 85.67 1.59 36




NCC Satellite Simultaneous Nadir Overpasses (SNOs) Prediction Service
